Skip Page Navigation
NASA JPL Caltech
NASA Logo - Jet Propulsion Laboratory + View the NASA Portal
+ Center for Near-Earth Object Studies
JPL Home Earth Solar System Stars & Galaxies Technology
JPL Solar System Dynamics
BODIES ORBITS EPHEMERIDES TOOLS PHYSICAL DATA DISCOVERY FAQ SITE MAP
JPL Small-Body Database Browser
Search: [ help ]  
214652 (2006 SR75)
Classification: Outer Main-belt Asteroid          SPK-ID: 2214652
Ephemeris | Orbit Diagram | Orbital Elements | Mission Design | Physical Parameters | Discovery Circumstances | Close-Approach Data ]

[ show orbit diagram ]
Orbital Elements at Epoch 2459000.5 (2020-May-31.0) TDB
Reference: JPL 13 (heliocentric ecliptic J2000)
 Element Value Uncertainty (1-sigma)   Units 
e .09391814519903378 5.2901e-08  
a 3.210324911617476 4.781e-08 au
q 2.90881715043211 1.7947e-07 au
i 9.249410155235848 9.3106e-06 deg
node 38.32219235814346 4.3966e-05 deg
peri 58.13691357789867 6.7965e-05 deg
M 72.62735198310457 5.2677e-05 deg
tp 2458576.642746855081
(2019-Apr-03.14274686)
0.00030514 TDB
period 2100.979960933557
5.75
4.6934e-05
1.285e-07
d
yr
n .1713486119306137 3.8277e-09 deg/d
Q 3.511832672802842 5.23e-08 au
  Orbit Determination Parameters
   # obs. used (total)      166  
   data-arc span      7059 days (19.33 yr)  
   first obs. used      2000-10-04  
   last obs. used      2020-02-01  
   planetary ephem.      DE431  
   SB-pert. ephem.      SB431-N16  
   condition code      0  
   norm. resid. RMS      .62306  
   source      ORB  
   producer      Otto Matic  
   solution date      2020-Feb-25 03:13:45  

Additional Information
 Earth MOID = 1.93869 au 
 Jupiter MOID = 1.73227 au 
 T_jup = 3.164 
[ show covariance matrix ]

Ephemeris | Orbit Diagram | Orbital Elements | Mission Design | Physical Parameters | Discovery Circumstances | Close-Approach Data ]

Physical Parameter Table
Parameter Symbol Value Units Sigma Reference Notes
absolute magnitude H 15.8   n/a MPO427262  

214652 (2006 SR75)          Discovered 2006-Sep-19 by Spacewatch at Kitt Peak
Reference: 20090509/Numbers.arcLast Updated: 2009-05-11

[ show close-approach data ]
Ephemeris | Orbit Diagram | Orbital Elements | Mission Design | Physical Parameters | Discovery Circumstances | Close-Approach Data ]
ABOUT SSD CREDITS/AWARDS PRIVACY/COPYRIGHT GLOSSARY LINKS
FirstGov 2020-Sep-19 00:44 UT
(server date/time)  
NASA Home Page
Site Manager:   Ryan S. Park
Webmaster  Alan B. Chamberlin